GW5689 Weather Reports


time (UTC)temp
F
wind
direction
speed
knots
gust
knots
rain 1hr
in
rain 24hr
in
rain mn
in
humidity
%
barometer
mb
20260510044805 45 47 0.0 0.0 0.00 0.00 0.00 96 1011.5
20260510044301 45 45 0.0 0.0 0.00 0.00 0.00 95 1011.6
20260510043757 46 45 0.0 0.0 0.00 0.00 0.00 95 1011.7
20260510043248 46 48 0.0 0.0 0.00 0.00 0.00 95 1011.8
20260510042746 46 49 0.0 0.0 0.00 0.00 0.00 95 1011.8
20260510042241 46 50 0.0 0.0 0.00 0.00 0.00 94 1011.5
20260510041738 46 39 0.0 0.0 0.00 0.00 0.00 94 1011.8
20260510041235 47 46 0.0 0.9 0.00 0.00 0.00 94 1011.6
20260510040733 47 43 0.0 0.0 0.00 0.00 0.00 93 1011.7
20260510040229 47 48 0.0 0.0 0.00 0.00 0.00 93 1011.6
20260510035724 47 44 0.0 0.9 0.00 0.00 0.00 93 1011.6
20260510035221 47 45 0.0 0.9 0.00 0.00 0.00 92 1011.9
20260510034716 48 45 0.0 0.9 0.00 0.00 0.00 92 1011.7
20260510034215 48 45 0.0 0.9 0.00 0.00 0.00 92 1011.7
20260510033710 48 48 0.0 0.0 0.00 0.00 0.00 91 1011.6
20260510033209 48 39 0.9 0.9 0.00 0.00 0.00 91 1011.6
20260510032705 48 47 0.0 0.0 0.00 0.00 0.00 91 1011.4
20260510032200 49 52 0.0 0.0 0.00 0.00 0.00 90 1011.4
20260510031655 49 48 0.0 0.0 0.00 0.00 0.00 89 1011.5
20260510031152 49 48 0.0 0.0 0.00 0.00 0.00 89 1011.5
20260510030652 50 41 0.9 0.9 0.00 0.00 0.00 89 1011.5
20260510030150 50 50 0.0 0.0 0.00 0.00 0.00 87 1011.6
20260510025647 50 44 0.0 0.0 0.00 0.00 0.00 86 1011.8
20260510025144 51 46 0.0 0.9 0.00 0.00 0.00 86 1011.3
20260510024641 51 44 0.0 0.9 0.00 0.00 0.00 85 1011.3
20260510024137 51 25 0.0 0.0 0.00 0.00 0.00 86 1011.2
20260510023633 51 46 0.0 0.0 0.00 0.00 0.00 86 1011.4
20260510023131 51 51 0.0 0.0 0.00 0.00 0.00 86 1011.3
20260510022631 51 47 0.0 0.0 0.00 0.00 0.00 86 1011.1
20260510022126 52 39 0.0 0.0 0.00 0.00 0.00 86 1011.1
20260510021616 52 51 0.0 0.0 0.00 0.00 0.00 85 1011.0
20260510021114 52 46 0.0 0.0 0.00 0.00 0.00 84 1010.8
20260510020608 52 50 0.0 0.9 0.00 0.00 0.00 84 1010.7
20260510020104 53 47 0.0 0.9 0.00 0.00 0.00 84 1010.6
20260510015600 53 47 0.0 0.0 0.00 0.00 0.00 82 1010.5
20260510015056 53 47 0.0 0.9 0.00 0.00 0.00 82 1010.5
20260510014552 53 48 0.0 0.0 0.00 0.00 0.00 83 1010.2
20260510014050 53 39 0.9 1.7 0.00 0.00 0.00 82 1010.2
20260510013544 54 46 0.0 0.0 0.00 0.00 0.00 81 1010.4
20260510013040 54 34 0.9 0.9 0.00 0.00 0.00 82 1010.3
20260510012534 54 36 0.9 0.9 0.00 0.00 0.00 82 1010.3
20260510012031 55 42 0.0 0.0 0.00 0.00 0.00 81 1010.1
20260510011530 56 42 0.0 0.0 0.00 0.00 0.00 79 1010.2
20260510011026 57 42 0.0 0.0 0.00 0.00 0.00 77 1009.9
20260510010523 57 36 0.0 0.0 0.00 0.00 0.00 74 1009.9
20260510010020 57 35 0.0 0.0 0.00 0.00 0.00 74 1009.6
20260510005516 58 46 0.0 0.0 0.00 0.00 0.00 73 1009.7
20260510005014 58 50 0.0 0.0 0.00 0.00 0.00 73 1009.5
20260510004511 58 43 0.0 0.0 0.00 0.00 0.00 73 1009.3
20260510004009 59 35 0.0 0.9 0.00 0.00 0.00 71 1009.4
20260510003505 59 47 0.0 0.0 0.00 0.00 0.00 71 1008.9
20260510003000 60 49 0.0 0.9 0.00 0.00 0.00 71 1008.7
20260510002457 61 46 0.0 0.0 0.00 0.00 0.00 68 1008.8
20260510001953 62 49 0.0 0.0 0.00 0.00 0.00 62 1008.7
20260510001451 63 46 0.0 0.0 0.00 0.00 0.00 57 1008.7
20260510000948 64 48 0.0 0.0 0.00 0.00 0.00 54 1008.6
20260510000444 65 40 0.0 0.0 0.00 0.00 0.00 53 1008.8
20260509235941 66 43 0.0 0.0 0.00 0.00 0.00 54 1008.6
20260509235437 67 35 0.0 1.7 0.00 0.00 0.00 51 1008.5
20260509234934 67 37 0.0 0.9 0.00 0.00 0.00 51 1008.5
20260509234431 68 43 0.0 0.9 0.00 0.00 0.00 49 1008.8
20260509233929 69 52 0.0 0.0 0.00 0.00 0.00 47 1008.5
20260509233426 69 48 0.0 0.0 0.00 0.00 0.00 48 1008.7
20260509232922 70 61 0.0 0.0 0.00 0.00 0.00 48 1008.6
20260509232420 71 55 0.0 0.0 0.00 0.00 0.00 46 1008.6
20260509231915 71 54 0.9 0.9 0.00 0.00 0.00 46 1008.5
20260509231413 72 85 0.0 0.9 0.00 0.00 0.00 43 1008.6
20260509230911 72 49 0.0 0.9 0.00 0.00 0.00 45 1008.7
20260509230407 72 59 0.0 0.9 0.00 0.00 0.00 47 1008.4
20260509225902 71 60 0.0 0.0 0.00 0.00 0.00 48 1008.2
20260509225359 71 50 0.0 0.0 0.00 0.00 0.00 50 1008.3
20260509224855 70 70 0.0 0.0 0.00 0.00 0.00 49 1008.3
20260509224351 71 55 0.0 0.0 0.00 0.00 0.00 53 1008.4
20260509223849 71 54 0.0 0.0 0.00 0.00 0.00 51 1008.5
20260509223345 71 48 0.0 0.9 0.00 0.00 0.00 44 1008.4
20260509222843 71 33 0.0 0.9 0.00 0.00 0.00 41 1008.5
20260509222337 72 83 0.0 0.9 0.00 0.00 0.00 42 1008.4
20260509221833 72 47 0.9 0.9 0.00 0.00 0.00 41 1008.3
20260509221331 72 64 0.9 0.9 0.00 0.00 0.00 42 1008.3
20260509220831 72 50 0.0 0.0 0.00 0.00 0.00 40 1008.3
20260509220327 72 28 0.9 0.9 0.00 0.00 0.00 41 1008.3
20260509215822 73 232 2.6 2.6 0.00 0.00 0.00 39 1008.2
20260509215320 73 73 0.0 0.0 0.00 0.00 0.00 41 1008.2
20260509214816 73 55 0.0 0.9 0.00 0.00 0.00 39 1008.3
20260509214313 73 33 2.6 2.6 0.00 0.00 0.00 37 1008.3
20260509213810 72 49 0.0 0.9 0.00 0.00 0.00 39 1008.2
20260509213306 72 57 0.0 6.1 0.00 0.00 0.00 38 1008.1
20260509212804 72 22 3.5 5.2 0.00 0.00 0.00 37 1008.1
20260509212301 72 45 0.0 1.7 0.00 0.00 0.00 38 1008.0
20260509211756 73 352 0.0 3.5 0.00 0.00 0.00 39 1008.0
20260509211253 73 50 0.9 3.5 0.00 0.00 0.00 37 1007.7
20260509210749 73 41 0.0 0.9 0.00 0.00 0.00 39 1007.9
20260509210248 73 164 0.9 1.7 0.00 0.00 0.00 38 1007.7
20260509205746 73 47 0.9 3.5 0.00 0.00 0.00 37 1007.8
20260509205242 73 23 0.9 2.6 0.00 0.00 0.00 38 1007.7
20260509204738 72 49 0.0 0.9 0.00 0.00 0.00 38 1007.6
20260509204234 72 330 0.9 1.7 0.00 0.00 0.00 41 1007.7
20260509203730 71 17 0.9 1.7 0.00 0.00 0.00 42 1007.7
20260509203229 72 30 0.9 1.7 0.00 0.00 0.00 44 1007.9
20260509202724 72 45 3.5 6.1 0.00 0.00 0.00 40 1007.8
20260509202220 72 50 0.0 0.9 0.00 0.00 0.00 51 1007.6
20260509201714 73 27 0.9 0.9 0.00 0.00 0.00 39 1007.6
20260509201212 73 55 0.0 0.0 0.00 0.00 0.00 39 1007.7
20260509200709 73 53 0.0 0.0 0.00 0.00 0.00 38 1007.6
20260509200209 73 53 0.0 0.0 0.00 0.00 0.00 38 1007.6
20260509195705 73 55 0.0 0.9 0.00 0.00 0.00 39 1008.0
20260509195201 73 43 2.6 2.6 0.00 0.00 0.00 40 1007.8
20260509194700 74 45 0.0 0.9 0.00 0.00 0.00 39 1007.9
20260509194157 74 38 0.9 0.9 0.00 0.00 0.00 38 1007.7
20260509193654 74 49 0.0 0.9 0.00 0.00 0.00 37 1007.8
20260509193149 73 58 0.0 0.0 0.00 0.00 0.00 41 1008.0
20260509192646 75 102 1.7 1.7 0.00 0.00 0.00 40 1007.8
20260509192141 74 72 0.0 3.5 0.00 0.00 0.00 40 1008.0
20260509191635 75 73 0.9 1.7 0.00 0.00 0.00 40 1008.0
20260509191132 76 174 3.5 3.5 0.00 0.00 0.00 40 1008.0
20260509190628 74 92 0.9 2.6 0.00 0.00 0.00 42 1008.3
20260509190127 75 68 0.9 1.7 0.00 0.00 0.00 44 1008.3
20260509185624 74 171 1.7 5.2 0.00 0.00 0.00 45 1008.4
20260509185120 74 84 0.9 2.6 0.00 0.00 0.00 46 1008.3
20260509184618 73 54 0.0 2.6 0.00 0.00 0.00 46 1008.1
20260509184115 73 44 0.9 1.7 0.00 0.00 0.00 47 1008.3
20260509183610 72 335 0.0 0.9 0.00 0.00 0.00 48 1008.5
20260509183105 74 190 1.7 1.7 0.00 0.00 0.00 48 1008.6
20260509182602 74 63 0.0 1.7 0.00 0.00 0.00 47 1008.4
20260509182059 75 182 1.7 2.6 0.00 0.00 0.00 49 1008.4
20260509181557 73 57 0.9 1.7 0.00 0.00 0.00 49 1008.7
20260509181054 71 68 0.0 1.7 0.00 0.00 0.00 49 1008.6
20260509180549 70 55 0.9 1.7 0.00 0.00 0.00 53 1008.9
20260509180047 69 84 0.9 1.7 0.00 0.00 0.00 52 1009.0
20260509175542 68 67 0.0 1.7 0.00 0.00 0.00 58 1009.1
20260509175040 69 53 0.9 0.9 0.00 0.00 0.00 54 1009.1
20260509174537 68 56 0.0 1.7 0.00 0.00 0.00 54 1009.4
20260509174032 68 59 0.0 0.9 0.00 0.00 0.00 52 1009.4
20260509173527 69 66 0.0 0.9 0.00 0.00 0.00 51 1009.5
20260509173023 69 92 0.0 1.7 0.00 0.00 0.00 51 1009.5
20260509172520 68 42 0.0 0.9 0.00 0.00 0.00 54 1009.5
20260509172015 68 57 0.9 0.9 0.00 0.00 0.00 53 1009.5
20260509171512 68 40 2.6 2.6 0.00 0.00 0.00 51 1009.2
20260509171008 68 71 0.9 1.7 0.00 0.00 0.00 52 1009.1
20260509170504 69 57 0.0 0.9 0.00 0.00 0.00 53 1009.6
20260509165959 69 78 0.9 0.9 0.00 0.00 0.00 53 1009.5
20260509165458 68 70 0.0 1.7 0.00 0.00 0.00 52 1009.5
20260509164955 69 53 0.0 3.5 0.00 0.00 0.00 53 1009.5
20260509164450 69 51 0.0 0.9 0.00 0.00 0.00 52 1009.5
20260509163946 69 80 1.7 1.7 0.00 0.00 0.00 52 1009.6
20260509163444 69 51 0.0 2.6 0.00 0.00 0.00 51 1009.4
20260509162943 70 43 0.9 0.9 0.00 0.00 0.00 50 1009.5
20260509162442 69 346 0.9 0.9 0.00 0.00 0.00 50 1009.6
20260509161938 69 48 0.9 2.6 0.00 0.00 0.00 50 1009.7
20260509161434 70 58 0.0 0.9 0.00 0.00 0.00 49 1009.6
20260509160930 70 90 0.9 1.7 0.00 0.00 0.00 50 1009.5
20260509160426 69 64 0.9 0.9 0.00 0.00 0.00 49 1009.5
20260509155921 70 76 0.0 1.7 0.00 0.00 0.00 49 1009.3
20260509155418 69 39 0.0 1.7 0.00 0.00 0.00 49 1009.4
20260509154914 70 68 0.9 1.7 0.00 0.00 0.00 47 1009.5
20260509154411 70 80 0.0 0.9 0.00 0.00 0.00 45 1009.6
20260509153907 69 70 0.0 0.9 0.00 0.00 0.00 47 1009.5
20260509153405 68 353 0.9 1.7 0.00 0.00 0.00 47 1009.3
20260509152902 69 63 0.0 1.7 0.00 0.00 0.00 46 1009.3
20260509152357 70 36 0.0 0.9 0.00 0.00 0.00 44 1009.2
20260509151855 69 54 0.9 0.9 0.00 0.00 0.00 47 1009.2
20260509151350 69 78 0.9 1.7 0.00 0.00 0.00 48 1009.0
20260509150849 69 51 0.0 0.9 0.00 0.00 0.00 45 1009.5
20260509150347 69 56 0.9 0.9 0.00 0.00 0.00 46 1009.6
20260509145844 69 62 0.9 1.7 0.00 0.00 0.00 46 1009.4
20260509145338 69 153 1.7 2.6 0.00 0.00 0.00 47 1009.5
20260509144835 68 56 0.0 1.7 0.00 0.00 0.00 47 1009.4
20260509144332 67 53 0.0 1.7 0.00 0.00 0.00 46 1009.5
20260509143829 68 84 0.9 2.6 0.00 0.00 0.00 50 1009.6
20260509143327 69 65 0.0 2.6 0.00 0.00 0.00 49 1009.6
20260509142822 69 80 0.0 1.7 0.00 0.00 0.00 50 1009.4
20260509142319 67 51 0.0 0.9 0.00 0.00 0.00 52 1009.7
20260509141814 67 62 0.0 2.6 0.00 0.00 0.00 54 1009.5
20260509141312 67 61 0.0 1.7 0.00 0.00 0.00 54 1009.8
20260509140808 67 53 0.0 0.9 0.00 0.00 0.00 55 1010.1
20260509140305 64 55 0.0 0.9 0.00 0.00 0.00 58 1010.1
20260509135803 64 87 0.9 0.9 0.00 0.00 0.00 57 1010.3
20260509135300 62 54 0.0 0.9 0.00 0.00 0.00 60 1010.3
20260509134757 62 61 0.0 0.9 0.00 0.00 0.00 61 1010.3
20260509134255 61 52 0.0 0.0 0.00 0.00 0.00 62 1010.5
20260509133752 61 54 0.0 0.0 0.00 0.00 0.00 61 1010.5
20260509133248 61 57 0.0 0.0 0.00 0.00 0.00 62 1010.7
20260509132747 60 57 0.0 0.0 0.00 0.00 0.00 65 1010.5
20260509132245 59 56 0.0 0.0 0.00 0.00 0.00 69 1010.5
20260509131742 58 52 0.0 0.0 0.00 0.00 0.00 71 1010.3
20260509131238 57 59 0.0 0.0 0.00 0.00 0.00 71 1010.7
20260509130734 56 49 0.0 0.0 0.00 0.00 0.00 74 1010.5
20260509130230 55 58 0.0 0.0 0.00 0.00 0.00 76 1010.5
20260509125727 55 71 0.0 0.9 0.00 0.00 0.00 78 1010.2
20260509125224 55 61 0.9 0.9 0.00 0.00 0.00 77 1010.3
20260509124720 55 60 0.0 0.0 0.00 0.00 0.00 78 1010.2
20260509124217 54 51 0.0 0.0 0.00 0.00 0.00 79 1010.1
20260509123716 54 71 0.0 0.0 0.00 0.00 0.00 77 1009.8
20260509123213 54 48 0.0 0.0 0.00 0.00 0.00 78 1010.4
20260509122708 53 50 0.0 0.0 0.00 0.00 0.00 80 1010.3
20260509122205 53 47 0.0 0.0 0.00 0.00 0.00 81 1010.3
20260509121702 52 50 0.0 0.0 0.00 0.00 0.00 82 1010.4
20260509121200 52 50 0.0 0.0 0.00 0.00 0.00 82 1010.2
20260509120658 52 52 0.0 0.0 0.00 0.00 0.00 83 1010.6
20260509120155 52 53 0.0 0.0 0.00 0.00 0.00 83 1010.5
20260509115653 51 53 0.0 0.0 0.00 0.00 0.00 83 1010.4
20260509115150 51 61 0.0 0.0 0.00 0.00 0.00 84 1010.5
20260509114648 51 46 0.0 0.0 0.00 0.00 0.00 85 1010.4
20260509114147 50 59 0.0 0.0 0.00 0.00 0.00 86 1010.6
20260509113645 50 52 0.0 0.0 0.00 0.00 0.00 86 1010.5
20260509113142 50 47 0.0 0.0 0.00 0.00 0.00 87 1010.4
20260509112638 50 63 0.0 0.0 0.00 0.00 0.00 86 1010.3
20260509112135 49 46 0.0 0.0 0.00 0.00 0.00 86 1010.1
20260509111632 49 56 0.0 0.0 0.00 0.00 0.00 87 1010.5
20260509111129 49 50 0.0 0.0 0.00 0.00 0.00 87 1010.1
20260509110626 49 58 0.0 0.0 0.00 0.00 0.00 89 1010.1
20260509110124 48 63 0.0 0.0 0.00 0.00 0.00 89 1010.3
20260509105621 48 47 0.0 0.0 0.00 0.00 0.00 90 1010.2
20260509105119 48 49 0.0 0.0 0.00 0.00 0.00 89 1010.1
20260509104616 48 46 0.0 0.0 0.00 0.00 0.00 90 1009.9
20260509104112 48 42 0.0 0.0 0.00 0.00 0.00 90 1010.2
20260509103610 48 51 0.0 0.0 0.00 0.00 0.00 89 1010.4
20260509103108 48 46 0.0 0.0 0.00 0.00 0.00 90 1010.3
20260509102605 48 44 0.0 0.0 0.00 0.00 0.00 90 1010.3
20260509102102 48 48 0.0 0.0 0.00 0.00 0.00 90 1010.4
20260509101558 48 46 0.0 0.0 0.00 0.00 0.00 90 1010.3
20260509101055 48 45 0.0 0.0 0.00 0.00 0.00 89 1010.4
20260509100552 48 51 0.0 0.0 0.00 0.00 0.00 88 1010.3
20260509100050 48 47 0.0 0.0 0.00 0.00 0.00 89 1010.2
20260509095546 48 38 0.0 0.0 0.00 0.00 0.00 89 1010.4
20260509095044 48 49 0.0 0.0 0.00 0.00 0.00 89 1010.3
20260509094540 48 51 0.0 0.0 0.00 0.00 0.00 89 1010.4
20260509094037 48 46 0.0 0.0 0.00 0.00 0.00 88 1010.2
20260509093535 48 63 0.9 0.9 0.00 0.00 0.00 88 1010.5
20260509093033 48 46 0.0 0.0 0.00 0.00 0.00 89 1010.3
20260509092530 48 47 0.0 0.0 0.00 0.00 0.00 88 1010.5
20260509092029 48 48 0.0 0.0 0.00 0.00 0.00 88 1010.5
20260509091526 48 48 0.0 0.0 0.00 0.00 0.00 88 1010.5
20260509091022 48 40 0.0 0.0 0.00 0.00 0.00 88 1010.4
20260509090520 48 46 0.0 0.0 0.00 0.00 0.00 88 1010.4
20260509090018 48 35 0.0 0.9 0.00 0.00 0.00 88 1010.4
20260509085514 48 45 0.0 0.0 0.00 0.00 0.00 87 1010.2
20260509085010 48 50 0.0 0.0 0.00 0.00 0.00 86 1010.3
20260509084508 48 48 0.0 0.0 0.00 0.00 0.00 87 1010.4
20260509084005 48 52 0.0 0.9 0.00 0.00 0.00 86 1010.8
20260509083502 48 53 0.0 1.7 0.00 0.00 0.00 87 1010.8
20260509082958 48 39 0.0 0.0 0.00 0.00 0.00 86 1010.6
20260509082456 48 43 0.0 0.0 0.00 0.00 0.00 86 1010.8
20260509081952 48 41 0.0 0.0 0.00 0.00 0.00 86 1010.7
20260509081450 48 55 0.0 0.0 0.00 0.00 0.00 86 1010.6
20260509080947 48 49 0.0 0.0 0.00 0.00 0.00 87 1010.7
20260509080445 48 46 0.0 0.0 0.00 0.00 0.00 87 1010.8
20260509075943 48 42 0.0 0.0 0.00 0.00 0.00 87 1010.9
20260509075439 48 67 0.0 0.0 0.00 0.00 0.00 87 1010.8
20260509074938 48 46 0.0 0.0 0.00 0.00 0.00 87 1010.8
20260509074435 48 42 0.0 0.0 0.00 0.00 0.00 86 1010.8
20260509073931 48 48 0.0 0.0 0.00 0.00 0.00 86 1010.9
20260509073427 48 59 0.0 0.0 0.00 0.00 0.00 87 1010.9
20260509072924 47 49 0.0 0.0 0.00 0.00 0.00 86 1010.9
20260509072421 47 50 0.0 0.0 0.00 0.00 0.00 87 1011.0
20260509071917 47 55 0.0 0.0 0.00 0.00 0.00 87 1011.0
20260509071414 47 61 0.0 0.0 0.00 0.00 0.00 87 1011.2
20260509070912 47 51 0.0 0.0 0.00 0.00 0.00 86 1011.0
20260509070408 47 48 0.0 0.0 0.00 0.00 0.00 87 1011.3
20260509065904 47 46 0.0 0.0 0.00 0.00 0.00 87 1011.2
20260509065400 47 63 0.0 0.0 0.00 0.00 0.00 87 1011.1
20260509064856 47 47 0.0 0.0 0.00 0.00 0.00 87 1011.3
20260509064354 46 77 0.0 0.0 0.00 0.00 0.00 88 1011.2
20260509063852 46 48 0.0 0.0 0.00 0.00 0.00 88 1011.3
20260509063347 46 51 0.0 0.0 0.00 0.00 0.00 88 1011.4
20260509062845 46 39 0.0 0.0 0.00 0.00 0.00 88 1011.3
20260509062342 46 41 0.0 0.0 0.00 0.00 0.00 90 1011.3
20260509061839 46 44 0.0 0.0 0.00 0.00 0.00 90 1011.3
20260509061337 45 35 0.0 0.0 0.00 0.00 0.00 90 1011.4
20260509060834 45 46 0.0 0.0 0.00 0.00 0.00 91 1011.4
20260509060331 45 47 0.0 0.0 0.00 0.00 0.00 91 1011.5
20260509055826 45 50 0.0 0.0 0.00 0.00 0.00 91 1011.6
20260509055327 46 46 0.0 0.0 0.00 0.00 0.00 90 1011.5
20260509054824 46 47 0.0 0.0 0.00 0.00 0.00 89 1011.8
20260509054321 46 47 0.0 0.0 0.00 0.00 0.00 89 1011.7
20260509053819 46 47 0.0 0.0 0.00 0.00 0.00 88 1011.8
20260509053316 46 47 0.0 0.0 0.00 0.00 0.00 88 1011.8
20260509052814 47 45 0.0 0.0 0.00 0.00 0.00 87 1011.9
20260509052311 47 45 0.0 0.0 0.00 0.00 0.00 87 1011.5
20260509051809 47 47 0.0 0.0 0.00 0.00 0.00 86 1011.8
20260509051307 47 46 0.0 0.0 0.00 0.00 0.00 86 1011.7
20260509050803 47 48 0.0 0.0 0.00 0.00 0.00 86 1012.0
20260509050300 47 52 0.0 0.9 0.00 0.00 0.00 85 1011.8
20260509045757 48 49 0.0 0.0 0.00 0.00 0.00 85 1011.8
20260509045254 48 42 0.0 0.0 0.00 0.00 0.00 84 1011.9